Flag for China Weather past 2 weeks in Chongqing, Chongqing Municipality, China

Now
91 °F

Clear.


Feels Like: 96 °F
Forecast: 85 / 105 °F
Wind: 1 mph from North

Location: Chongqing Airport

Current Time: Jul 31, 2014 at 1:38:37 AM

Latest Report: Jul 31, 2014 at 1:00 AM


Visibility: 10 mi

Pressure: 29.62 "Hg

Humidity: 46%

Dew point: 68 °F

Location of ChongqingLocation

Historic Weather in Chongqing — Graph

°F

Chongqing temperature yesterday

Maximum temperature yesterday: 102 °F (at 5:00 PM)
Minimum temperature yesterday: 86 °F (at 3:00 AM)
Average temperature yesterday: 93 °F

Past Weeks' High & Low Weather Summary

 TemperatureHumidityPressure
High102 °F (Jul 22, 3:00 PM)94% (Jul 16, 5:00 AM)29.86 "Hg (Jul 16, 5:00 AM)
Low72 °F (Jul 16, 5:00 AM)27% (Jul 22, 3:00 PM)29.53 "Hg (Jul 23, 6:00 PM)
Average88 °F53%29.69 "Hg
* Reported Midnight between Jul 15 and Jul 16 — Midnight between Jul 30 and Jul 31, Chongqing, Weather by CustomWeather, © 2014

Note: Actual official high and low records may vary slightly from our data, if they occured in-between our weather recording intervals... More about our weather records

Advertising

Chongqing weather history for previous 24 hours

 ConditionsComfort  
Time TempWeatherWind HumidityBarometerVisibility
12:00 AM
Jul 31
93 °FClear.6 mph44%29.62 "Hg10 mi
11:00 PM
Jul 30
93 °FPassing clouds.6 mph44%29.59 "HgN/A
10:00 PM95 °FClear.6 mph39%29.59 "Hg10 mi
9:00 PM95 °FClear.6 mph39%29.56 "Hg10 mi
8:00 PM97 °FClear.6 mph34%29.56 "Hg10 mi
7:00 PM99 °FSunny.6 mph33%29.53 "Hg10 mi
6:00 PM100 °FSunny.3 mph31%29.53 "Hg10 mi
5:00 PM102 °FPassing clouds.3 mph29%29.53 "HgN/A
4:00 PM100 °FPassing clouds.3 mph33%29.56 "HgN/A
3:00 PM100 °FPassing clouds.6 mph33%29.59 "HgN/A
2:00 PM99 °FPassing clouds.6 mph35%29.59 "HgN/A
1:00 PM97 °FPassing clouds.6 mph37%29.62 "HgN/A
12:00 PM97 °FPassing clouds.8 mph34%29.65 "HgN/A
11:00 AM95 °FPassing clouds.6 mph41%29.65 "HgN/A
10:00 AM91 °FPassing clouds.8 mph46%29.65 "HgN/A
9:00 AM91 °FPassing clouds.3 mph46%29.65 "HgN/A
8:00 AM88 °FSunny.8 mph52%29.65 "Hg10 mi
7:00 AM86 °FSunny.3 mph55%29.62 "Hg10 mi
6:00 AM86 °FClear.3 mph55%29.62 "Hg10 mi
5:00 AM86 °FClear.3 mph55%29.62 "Hg10 mi
4:00 AM86 °FClear.3 mph55%29.62 "Hg10 mi
3:00 AM86 °FClear.3 mph55%29.62 "Hg10 mi
2:00 AM88 °FClear.6 mph49%29.62 "Hg10 mi
1:00 AM90 °FClear.6 mph49%29.62 "Hg10 mi
Weather by CustomWeather, © 2014

See weather overviewHow to use our weather pages